Year,Month,Day,Hour,Minute,Value (Times are PST for insolation in W/m^2)
2021,06,01,00,00,0.00
2021,06,01,00,01,0.00
2021,06,01,00,02,0.00
2021,06,01,00,03,0.00
2021,06,01,00,04,0.00
2021,06,01,00,05,0.00
2021,06,01,00,06,0.00
2021,06,01,00,07,0.00
2021,06,01,00,08,0.00
2021,06,01,00,09,0.00
2021,06,01,00,10,0.00
2021,06,01,00,11,0.00
2021,06,01,00,12,0.00
2021,06,01,00,13,0.00
2021,06,01,00,14,0.00
2021,06,01,00,15,0.00
2021,06,01,00,16,0.00
2021,06,01,00,17,0.00
2021,06,01,00,18,0.00
2021,06,01,00,19,0.00
2021,06,01,00,20,0.00
2021,06,01,00,21,0.00
2021,06,01,00,22,0.00
2021,06,01,00,23,0.00
2021,06,01,00,24,0.00
2021,06,01,00,25,0.00
2021,06,01,00,26,0.00
2021,06,01,00,27,0.00
2021,06,01,00,28,0.00
2021,06,01,00,29,0.00
2021,06,01,00,30,0.00
2021,06,01,00,31,0.00
2021,06,01,00,32,0.00
2021,06,01,00,33,0.00
2021,06,01,00,34,0.00
2021,06,01,00,35,0.00
2021,06,01,00,36,0.00
2021,06,01,00,37,0.00
2021,06,01,00,38,0.00
2021,06,01,00,39,0.00
2021,06,01,00,40,0.00
2021,06,01,00,41,0.00
2021,06,01,00,42,0.00
2021,06,01,00,43,0.00
2021,06,01,00,44,0.00
2021,06,01,00,45,0.00
2021,06,01,00,46,0.00
2021,06,01,00,47,0.00
2021,06,01,00,48,0.00
2021,06,01,00,49,0.00
2021,06,01,00,50,0.00
2021,06,01,00,51,0.00
2021,06,01,00,52,0.00
2021,06,01,00,53,0.00
2021,06,01,00,54,0.00
2021,06,01,00,55,0.00
2021,06,01,00,56,0.00
2021,06,01,00,57,0.00
2021,06,01,00,58,0.00
2021,06,01,00,59,0.00
2021,06,01,01,00,0.00
2021,06,01,01,01,0.00
2021,06,01,01,02,0.00
2021,06,01,01,03,0.00
2021,06,01,01,04,0.00
2021,06,01,01,05,0.00
2021,06,01,01,06,0.00
2021,06,01,01,07,0.00
2021,06,01,01,08,0.00
2021,06,01,01,09,0.00
2021,06,01,01,10,0.00
2021,06,01,01,11,0.00
2021,06,01,01,12,0.00
2021,06,01,01,13,0.00
2021,06,01,01,14,0.00
2021,06,01,01,15,0.00
2021,06,01,01,16,0.00
2021,06,01,01,17,0.00
2021,06,01,01,18,0.00
2021,06,01,01,19,0.00
2021,06,01,01,20,0.00
2021,06,01,01,21,0.00
2021,06,01,01,22,0.00
2021,06,01,01,23,0.00
2021,06,01,01,24,0.00
2021,06,01,01,25,0.00
2021,06,01,01,26,0.00
2021,06,01,01,27,0.00
2021,06,01,01,28,0.00
2021,06,01,01,29,0.00
2021,06,01,01,30,0.00
2021,06,01,01,31,0.00
2021,06,01,01,32,0.00
2021,06,01,01,33,0.00
2021,06,01,01,34,0.00
2021,06,01,01,35,0.00
2021,06,01,01,36,0.00
2021,06,01,01,37,0.00
2021,06,01,01,38,0.00
2021,06,01,01,39,0.00
2021,06,01,01,40,0.00
2021,06,01,01,41,0.00
2021,06,01,01,42,0.00
2021,06,01,01,43,0.00
2021,06,01,01,44,0.00
2021,06,01,01,45,0.00
2021,06,01,01,46,0.00
2021,06,01,01,47,0.00
2021,06,01,01,48,0.00
2021,06,01,01,49,0.00
2021,06,01,01,50,0.00
2021,06,01,01,51,0.00
2021,06,01,01,52,0.00
2021,06,01,01,53,0.00
2021,06,01,01,54,0.00
2021,06,01,01,55,0.00
2021,06,01,01,56,0.00
2021,06,01,01,57,0.00
2021,06,01,01,58,0.00
2021,06,01,01,59,0.00
2021,06,01,02,00,0.00
2021,06,01,02,01,0.00
2021,06,01,02,02,0.00
2021,06,01,02,03,0.00
2021,06,01,02,04,0.00
2021,06,01,02,05,0.00
2021,06,01,02,06,0.00
2021,06,01,02,07,0.00
2021,06,01,02,08,0.00
2021,06,01,02,09,0.00
2021,06,01,02,10,0.00
2021,06,01,02,11,0.00
2021,06,01,02,12,0.00
2021,06,01,02,13,0.00
2021,06,01,02,14,0.00
2021,06,01,02,15,0.00
2021,06,01,02,16,0.00
2021,06,01,02,17,0.00
2021,06,01,02,18,0.00
2021,06,01,02,19,0.00
2021,06,01,02,20,0.00
2021,06,01,02,21,0.00
2021,06,01,02,22,0.00
2021,06,01,02,23,0.00
2021,06,01,02,24,0.00
2021,06,01,02,25,0.00
2021,06,01,02,26,0.00
2021,06,01,02,27,0.00
2021,06,01,02,28,0.00
2021,06,01,02,29,0.00
2021,06,01,02,30,0.00
2021,06,01,02,31,0.00
2021,06,01,02,32,0.00
2021,06,01,02,33,0.00
2021,06,01,02,34,0.00
2021,06,01,02,35,0.00
2021,06,01,02,36,0.00
2021,06,01,02,37,0.00
2021,06,01,02,38,0.00
2021,06,01,02,39,0.00
2021,06,01,02,40,0.00
2021,06,01,02,41,0.00
2021,06,01,02,42,0.00
2021,06,01,02,43,0.00
2021,06,01,02,44,0.00
2021,06,01,02,45,0.00
2021,06,01,02,46,0.00
2021,06,01,02,47,0.00
2021,06,01,02,48,0.00
2021,06,01,02,49,0.00
2021,06,01,02,50,0.00
2021,06,01,02,51,0.00
2021,06,01,02,52,0.00
2021,06,01,02,53,0.00
2021,06,01,02,54,0.00
2021,06,01,02,55,0.00
2021,06,01,02,56,0.00
2021,06,01,02,57,0.00
2021,06,01,02,58,0.00
2021,06,01,02,59,0.00
2021,06,01,03,00,0.00
2021,06,01,03,01,0.00
2021,06,01,03,02,0.00
2021,06,01,03,03,0.00
2021,06,01,03,04,0.00
2021,06,01,03,05,0.00
2021,06,01,03,06,0.00
2021,06,01,03,07,0.00
2021,06,01,03,08,0.00
2021,06,01,03,09,0.00
2021,06,01,03,10,0.00
2021,06,01,03,11,0.00
2021,06,01,03,12,0.00
2021,06,01,03,13,0.00
2021,06,01,03,14,0.00
2021,06,01,03,15,0.00
2021,06,01,03,16,0.00
2021,06,01,03,17,0.00
2021,06,01,03,18,0.00
2021,06,01,03,19,0.00
2021,06,01,03,20,0.00
2021,06,01,03,21,0.00
2021,06,01,03,22,0.00
2021,06,01,03,23,0.00
2021,06,01,03,24,0.00
2021,06,01,03,25,0.00
2021,06,01,03,26,0.00
2021,06,01,03,27,0.00
2021,06,01,03,28,0.00
2021,06,01,03,29,0.00
2021,06,01,03,30,0.00
2021,06,01,03,31,0.00
2021,06,01,03,32,0.00
2021,06,01,03,33,0.00
2021,06,01,03,34,0.00
2021,06,01,03,35,0.00
2021,06,01,03,36,0.00
2021,06,01,03,37,0.00
2021,06,01,03,38,0.00
2021,06,01,03,39,0.00
2021,06,01,03,40,0.00
2021,06,01,03,41,0.00
2021,06,01,03,42,0.00
2021,06,01,03,43,0.00
2021,06,01,03,44,0.00
2021,06,01,03,45,0.00
2021,06,01,03,46,0.00
2021,06,01,03,47,0.00
2021,06,01,03,48,0.00
2021,06,01,03,49,0.00
2021,06,01,03,50,0.00
2021,06,01,03,51,0.00
2021,06,01,03,52,0.00
2021,06,01,03,53,0.00
2021,06,01,03,54,0.00
2021,06,01,03,55,0.00
2021,06,01,03,56,0.00
2021,06,01,03,57,0.00
2021,06,01,03,58,0.00
2021,06,01,03,59,0.00
2021,06,01,04,00,0.00
2021,06,01,04,01,0.00
2021,06,01,04,02,0.00
2021,06,01,04,03,0.00
2021,06,01,04,04,0.00
2021,06,01,04,05,0.00
2021,06,01,04,06,0.00
2021,06,01,04,07,0.00
2021,06,01,04,08,0.00
2021,06,01,04,09,0.00
2021,06,01,04,10,0.00
2021,06,01,04,11,0.00
2021,06,01,04,12,0.00
2021,06,01,04,13,0.00
2021,06,01,04,14,0.00
2021,06,01,04,15,0.00
2021,06,01,04,16,0.00
2021,06,01,04,17,0.00
2021,06,01,04,18,0.00
2021,06,01,04,19,0.00
2021,06,01,04,20,0.00
2021,06,01,04,21,0.00
2021,06,01,04,22,0.00
2021,06,01,04,23,0.00
2021,06,01,04,24,0.00
2021,06,01,04,25,0.00
2021,06,01,04,26,0.00
2021,06,01,04,27,0.00
2021,06,01,04,28,0.00
2021,06,01,04,29,0.00
2021,06,01,04,30,0.00
2021,06,01,04,31,0.00
2021,06,01,04,32,0.00
2021,06,01,04,33,0.00
2021,06,01,04,34,0.00
2021,06,01,04,35,0.00
2021,06,01,04,36,0.00
2021,06,01,04,37,0.00
2021,06,01,04,38,0.00
2021,06,01,04,39,0.00
2021,06,01,04,40,0.00
2021,06,01,04,41,0.00
2021,06,01,04,42,0.00
2021,06,01,04,43,0.00
2021,06,01,04,44,0.00
2021,06,01,04,45,0.00
2021,06,01,04,46,0.00
2021,06,01,04,47,0.00
2021,06,01,04,48,0.00
2021,06,01,04,49,0.00
2021,06,01,04,50,0.00
2021,06,01,04,51,0.00
2021,06,01,04,52,0.00
2021,06,01,04,53,0.00
2021,06,01,04,54,0.00
2021,06,01,04,55,0.00
2021,06,01,04,56,0.00
2021,06,01,04,57,0.00
2021,06,01,04,58,2.60
2021,06,01,04,59,5.00
2021,06,01,05,00,5.00
2021,06,01,05,01,5.00
2021,06,01,05,02,5.00
2021,06,01,05,03,5.00
2021,06,01,05,04,5.00
2021,06,01,05,05,6.40
2021,06,01,05,06,7.00
2021,06,01,05,07,7.00
2021,06,01,05,08,7.00
2021,06,01,05,09,7.00
2021,06,01,05,10,7.00
2021,06,01,05,11,7.00
2021,06,01,05,12,7.00
2021,06,01,05,13,7.30
2021,06,01,05,14,9.00
2021,06,01,05,15,9.00
2021,06,01,05,16,9.00
2021,06,01,05,17,9.00
2021,06,01,05,18,10.70
2021,06,01,05,19,11.00
2021,06,01,05,20,11.30
2021,06,01,05,21,12.00
2021,06,01,05,22,13.30
2021,06,01,05,23,14.00
2021,06,01,05,24,14.00
2021,06,01,05,25,14.00
2021,06,01,05,26,14.00
2021,06,01,05,27,14.00
2021,06,01,05,28,15.30
2021,06,01,05,29,16.00
2021,06,01,05,30,16.00
2021,06,01,05,31,16.40
2021,06,01,05,32,18.00
2021,06,01,05,33,18.50
2021,06,01,05,34,19.00
2021,06,01,05,35,20.60
2021,06,01,05,36,23.10
2021,06,01,05,37,25.00
2021,06,01,05,38,25.00
2021,06,01,05,39,25.00
2021,06,01,05,40,25.00
2021,06,01,05,41,23.40
2021,06,01,05,42,23.00
2021,06,01,05,43,22.60
2021,06,01,05,44,21.00
2021,06,01,05,45,21.00
2021,06,01,05,46,21.00
2021,06,01,05,47,21.00
2021,06,01,05,48,22.90
2021,06,01,05,49,23.00
2021,06,01,05,50,23.80
2021,06,01,05,51,25.00
2021,06,01,05,52,25.00
2021,06,01,05,53,25.00
2021,06,01,05,54,25.00
2021,06,01,05,55,24.40
2021,06,01,05,56,23.00
2021,06,01,05,57,21.80
2021,06,01,05,58,22.50
2021,06,01,05,59,23.00
2021,06,01,06,00,25.10
2021,06,01,06,01,26.70
2021,06,01,06,02,28.00
2021,06,01,06,03,29.20
2021,06,01,06,04,30.00
2021,06,01,06,05,31.80
2021,06,01,06,06,32.20
2021,06,01,06,07,33.60
2021,06,01,06,08,35.90
2021,06,01,06,09,38.80
2021,06,01,06,10,41.60
2021,06,01,06,11,44.00
2021,06,01,06,12,46.20
2021,06,01,06,13,47.70
2021,06,01,06,14,49.00
2021,06,01,06,15,50.30
2021,06,01,06,16,52.60
2021,06,01,06,17,53.10
2021,06,01,06,18,54.00
2021,06,01,06,19,53.60
2021,06,01,06,20,53.00
2021,06,01,06,21,53.00
2021,06,01,06,22,51.40
2021,06,01,06,23,48.90
2021,06,01,06,24,47.00
2021,06,01,06,25,46.60
2021,06,01,06,26,44.90
2021,06,01,06,27,42.60
2021,06,01,06,28,40.40
2021,06,01,06,29,38.80
2021,06,01,06,30,36.40
2021,06,01,06,31,35.00
2021,06,01,06,32,33.80
2021,06,01,06,33,33.00
2021,06,01,06,34,32.10
2021,06,01,06,35,32.00
2021,06,01,06,36,32.00
2021,06,01,06,37,32.00
2021,06,01,06,38,32.00
2021,06,01,06,39,32.70
2021,06,01,06,40,33.00
2021,06,01,06,41,33.00
2021,06,01,06,42,33.60
2021,06,01,06,43,35.00
2021,06,01,06,44,35.00
2021,06,01,06,45,35.00
2021,06,01,06,46,35.10
2021,06,01,06,47,37.00
2021,06,01,06,48,37.70
2021,06,01,06,49,39.00
2021,06,01,06,50,39.60
2021,06,01,06,51,41.60
2021,06,01,06,52,43.90
2021,06,01,06,53,46.20
2021,06,01,06,54,47.70
2021,06,01,06,55,50.00
2021,06,01,06,56,53.00
2021,06,01,06,57,55.60
2021,06,01,06,58,58.00
2021,06,01,06,59,60.40
2021,06,01,07,00,62.00
2021,06,01,07,01,62.00
2021,06,01,07,02,62.00
2021,06,01,07,03,62.80
2021,06,01,07,04,63.00
2021,06,01,07,05,63.50
2021,06,01,07,06,65.00
2021,06,01,07,07,66.10
2021,06,01,07,08,68.30
2021,06,01,07,09,71.40
2021,06,01,07,10,74.20
2021,06,01,07,11,76.80
2021,06,01,07,12,79.80
2021,06,01,07,13,82.70
2021,06,01,07,14,85.40
2021,06,01,07,15,86.00
2021,06,01,07,16,88.00
2021,06,01,07,17,87.40
2021,06,01,07,18,85.20
2021,06,01,07,19,83.40
2021,06,01,07,20,81.50
2021,06,01,07,21,79.20
2021,06,01,07,22,77.00
2021,06,01,07,23,77.00
2021,06,01,07,24,77.00
2021,06,01,07,25,77.00
2021,06,01,07,26,78.50
2021,06,01,07,27,80.90
2021,06,01,07,28,84.40
2021,06,01,07,29,86.70
2021,06,01,07,30,88.90
2021,06,01,07,31,90.60
2021,06,01,07,32,92.60
2021,06,01,07,33,93.10
2021,06,01,07,34,95.40
2021,06,01,07,35,97.30
2021,06,01,07,36,99.00
2021,06,01,07,37,101.30
2021,06,01,07,38,103.60
2021,06,01,07,39,104.90
2021,06,01,07,40,105.40
2021,06,01,07,41,106.30
2021,06,01,07,42,104.50
2021,06,01,07,43,102.70
2021,06,01,07,44,100.40
2021,06,01,07,45,98.00
2021,06,01,07,46,97.00
2021,06,01,07,47,96.30
2021,06,01,07,48,92.90
2021,06,01,07,49,90.30
2021,06,01,07,50,86.60
2021,06,01,07,51,82.90
2021,06,01,07,52,80.50
2021,06,01,07,53,78.20
2021,06,01,07,54,77.00
2021,06,01,07,55,77.00
2021,06,01,07,56,77.00
2021,06,01,07,57,79.00
2021,06,01,07,58,79.60
2021,06,01,07,59,82.30
2021,06,01,08,00,86.40
2021,06,01,08,01,91.70
2021,06,01,08,02,97.40
2021,06,01,08,03,102.70
2021,06,01,08,04,108.80
2021,06,01,08,05,113.50
2021,06,01,08,06,115.30
2021,06,01,08,07,114.50
2021,06,01,08,08,111.10
2021,06,01,08,09,103.30
2021,06,01,08,10,101.70
2021,06,01,08,11,137.90
2021,06,01,08,12,160.60
2021,06,01,08,13,120.80
2021,06,01,08,14,100.70
2021,06,01,08,15,96.60
2021,06,01,08,16,95.00
2021,06,01,08,17,95.00
2021,06,01,08,18,95.00
2021,06,01,08,19,96.60
2021,06,01,08,20,98.10
2021,06,01,08,21,100.40
2021,06,01,08,22,103.10
2021,06,01,08,23,106.00
2021,06,01,08,24,109.70
2021,06,01,08,25,113.30
2021,06,01,08,26,116.10
2021,06,01,08,27,118.50
2021,06,01,08,28,121.20
2021,06,01,08,29,124.00
2021,06,01,08,30,125.00
2021,06,01,08,31,126.60
2021,06,01,08,32,126.80
2021,06,01,08,33,125.00
2021,06,01,08,34,125.80
2021,06,01,08,35,127.60
2021,06,01,08,36,130.80
2021,06,01,08,37,134.60
2021,06,01,08,38,139.40
2021,06,01,08,39,143.20
2021,06,01,08,40,146.90
2021,06,01,08,41,148.60
2021,06,01,08,42,146.90
2021,06,01,08,43,139.50
2021,06,01,08,44,130.70
2021,06,01,08,45,122.90
2021,06,01,08,46,115.80
2021,06,01,08,47,111.80
2021,06,01,08,48,109.50
2021,06,01,08,49,109.00
2021,06,01,08,50,108.60
2021,06,01,08,51,107.00
2021,06,01,08,52,107.00
2021,06,01,08,53,107.00
2021,06,01,08,54,107.00
2021,06,01,08,55,109.00
2021,06,01,08,56,115.30
2021,06,01,08,57,122.60
2021,06,01,08,58,131.80
2021,06,01,08,59,142.70
2021,06,01,09,00,155.40
2021,06,01,09,01,171.20
2021,06,01,09,02,200.40
2021,06,01,09,03,188.70
2021,06,01,09,04,192.60
2021,06,01,09,05,195.00
2021,06,01,09,06,193.40
2021,06,01,09,07,195.40
2021,06,01,09,08,200.60
2021,06,01,09,09,209.00
2021,06,01,09,10,217.60
2021,06,01,09,11,226.40
2021,06,01,09,12,229.00
2021,06,01,09,13,227.10
2021,06,01,09,14,226.50
2021,06,01,09,15,224.20
2021,06,01,09,16,221.90
2021,06,01,09,17,218.90
2021,06,01,09,18,218.00
2021,06,01,09,19,215.70
2021,06,01,09,20,213.70
2021,06,01,09,21,211.30
2021,06,01,09,22,207.20
2021,06,01,09,23,206.00
2021,06,01,09,24,243.50
2021,06,01,09,25,199.00
2021,06,01,09,26,199.00
2021,06,01,09,27,199.00
2021,06,01,09,28,177.70
2021,06,01,09,29,154.10
2021,06,01,09,30,146.30
2021,06,01,09,31,137.70
2021,06,01,09,32,130.30
2021,06,01,09,33,124.10
2021,06,01,09,34,119.10
2021,06,01,09,35,116.40
2021,06,01,09,36,118.10
2021,06,01,09,37,125.40
2021,06,01,09,38,128.10
2021,06,01,09,39,131.00
2021,06,01,09,40,133.90
2021,06,01,09,41,140.40
2021,06,01,09,42,151.00
2021,06,01,09,43,162.00
2021,06,01,09,44,172.20
2021,06,01,09,45,183.20
2021,06,01,09,46,196.00
2021,06,01,09,47,220.40
2021,06,01,09,48,238.40
2021,06,01,09,49,259.60
2021,06,01,09,50,275.50
2021,06,01,09,51,276.90
2021,06,01,09,52,253.60
2021,06,01,09,53,250.00
2021,06,01,09,54,243.70
2021,06,01,09,55,256.00
2021,06,01,09,56,242.20
2021,06,01,09,57,238.40
2021,06,01,09,58,236.10
2021,06,01,09,59,230.20
2021,06,01,10,00,236.90
2021,06,01,10,01,248.70
2021,06,01,10,02,261.80
2021,06,01,10,03,269.60
2021,06,01,10,04,270.50
2021,06,01,10,05,286.30
2021,06,01,10,06,273.60
2021,06,01,10,07,289.90
2021,06,01,10,08,283.40
2021,06,01,10,09,282.70
2021,06,01,10,10,281.10
2021,06,01,10,11,280.80
2021,06,01,10,12,284.60
2021,06,01,10,13,280.70
2021,06,01,10,14,263.50
2021,06,01,10,15,257.40
2021,06,01,10,16,239.50
2021,06,01,10,17,225.20
2021,06,01,10,18,220.80
2021,06,01,10,19,220.00
2021,06,01,10,20,220.50
2021,06,01,10,21,230.40
2021,06,01,10,22,246.90
2021,06,01,10,23,256.70
2021,06,01,10,24,259.60
2021,06,01,10,25,258.70
2021,06,01,10,26,260.00
2021,06,01,10,27,258.70
2021,06,01,10,28,257.20
2021,06,01,10,29,248.40
2021,06,01,10,30,240.90
2021,06,01,10,31,231.50
2021,06,01,10,32,235.60
2021,06,01,10,33,237.00
2021,06,01,10,34,240.30
2021,06,01,10,35,263.60
2021,06,01,10,36,259.20
2021,06,01,10,37,257.40
2021,06,01,10,38,261.90
2021,06,01,10,39,267.80
2021,06,01,10,40,274.90
2021,06,01,10,41,285.00
2021,06,01,10,42,287.70
2021,06,01,10,43,301.00
2021,06,01,10,44,311.30
2021,06,01,10,45,308.00
2021,06,01,10,46,299.80
2021,06,01,10,47,291.30
2021,06,01,10,48,287.00
2021,06,01,10,49,287.40
2021,06,01,10,50,291.60
2021,06,01,10,51,297.70
2021,06,01,10,52,301.80
2021,06,01,10,53,305.00
2021,06,01,10,54,298.80
2021,06,01,10,55,291.20
2021,06,01,10,56,288.00
2021,06,01,10,57,287.30
2021,06,01,10,58,289.80
2021,06,01,10,59,295.10
2021,06,01,11,00,304.20
2021,06,01,11,01,315.60
2021,06,01,11,02,319.30
2021,06,01,11,03,316.90
2021,06,01,11,04,319.30
2021,06,01,11,05,290.00
2021,06,01,11,06,281.20
2021,06,01,11,07,278.00
2021,06,01,11,08,276.70
2021,06,01,11,09,276.00
2021,06,01,11,10,285.40
2021,06,01,11,11,268.10
2021,06,01,11,12,264.60
2021,06,01,11,13,264.50
2021,06,01,11,14,264.30
2021,06,01,11,15,264.00
2021,06,01,11,16,266.00
2021,06,01,11,17,276.90
2021,06,01,11,18,281.30
2021,06,01,11,19,277.10
2021,06,01,11,20,284.30
2021,06,01,11,21,283.60
2021,06,01,11,22,288.70
2021,06,01,11,23,282.80
2021,06,01,11,24,293.20
2021,06,01,11,25,309.30
2021,06,01,11,26,328.70
2021,06,01,11,27,324.30
2021,06,01,11,28,317.60
2021,06,01,11,29,333.00
2021,06,01,11,30,324.60
2021,06,01,11,31,302.80
2021,06,01,11,32,303.50
2021,06,01,11,33,319.10
2021,06,01,11,34,271.40
2021,06,01,11,35,257.30
2021,06,01,11,36,247.80
2021,06,01,11,37,239.60
2021,06,01,11,38,230.80
2021,06,01,11,39,220.00
2021,06,01,11,40,209.90
2021,06,01,11,41,204.70
2021,06,01,11,42,201.00
2021,06,01,11,43,208.20
2021,06,01,11,44,220.80
2021,06,01,11,45,214.10
2021,06,01,11,46,219.10
2021,06,01,11,47,228.20
2021,06,01,11,48,244.30
2021,06,01,11,49,263.00
2021,06,01,11,50,295.10
2021,06,01,11,51,331.30
2021,06,01,11,52,365.70
2021,06,01,11,53,390.90
2021,06,01,11,54,422.40
2021,06,01,11,55,506.40
2021,06,01,11,56,534.00
2021,06,01,11,57,392.40
2021,06,01,11,58,365.10
2021,06,01,11,59,311.00
2021,06,01,12,00,314.70
2021,06,01,12,01,333.40
2021,06,01,12,02,364.60
2021,06,01,12,03,414.10
2021,06,01,12,04,379.40
2021,06,01,12,05,382.00
2021,06,01,12,06,398.70
2021,06,01,12,07,406.60
2021,06,01,12,08,405.40
2021,06,01,12,09,390.00
2021,06,01,12,10,400.40
2021,06,01,12,11,401.90
2021,06,01,12,12,369.40
2021,06,01,12,13,361.10
2021,06,01,12,14,357.30
2021,06,01,12,15,357.70
2021,06,01,12,16,343.70
2021,06,01,12,17,318.30
2021,06,01,12,18,301.40
2021,06,01,12,19,295.40
2021,06,01,12,20,297.00
2021,06,01,12,21,304.40
2021,06,01,12,22,306.70
2021,06,01,12,23,308.00
2021,06,01,12,24,306.70
2021,06,01,12,25,306.00
2021,06,01,12,26,303.40
2021,06,01,12,27,292.40
2021,06,01,12,28,284.80
2021,06,01,12,29,279.50
2021,06,01,12,30,278.00
2021,06,01,12,31,278.00
2021,06,01,12,32,279.20
2021,06,01,12,33,281.50
2021,06,01,12,34,285.00
2021,06,01,12,35,290.20
2021,06,01,12,36,292.00
2021,06,01,12,37,290.30
2021,06,01,12,38,286.80
2021,06,01,12,39,284.50
2021,06,01,12,40,282.20
2021,06,01,12,41,278.10
2021,06,01,12,42,273.20
2021,06,01,12,43,269.30
2021,06,01,12,44,264.60
2021,06,01,12,45,261.50
2021,06,01,12,46,259.20
2021,06,01,12,47,258.00
2021,06,01,12,48,259.40
2021,06,01,12,49,260.00
2021,06,01,12,50,260.60
2021,06,01,12,51,264.30
2021,06,01,12,52,265.90
2021,06,01,12,53,269.40
2021,06,01,12,54,274.70
2021,06,01,12,55,280.60
2021,06,01,12,56,285.40
2021,06,01,12,57,287.30
2021,06,01,12,58,289.80
2021,06,01,12,59,295.00
2021,06,01,13,00,305.90
2021,06,01,13,01,327.00
2021,06,01,13,02,351.90
2021,06,01,13,03,380.20
2021,06,01,13,04,384.10
2021,06,01,13,05,392.00
2021,06,01,13,06,345.30
2021,06,01,13,07,304.70
2021,06,01,13,08,284.60
2021,06,01,13,09,274.10
2021,06,01,13,10,269.90
2021,06,01,13,11,269.00
2021,06,01,13,12,269.00
2021,06,01,13,13,264.40
2021,06,01,13,14,255.40
2021,06,01,13,15,247.60
2021,06,01,13,16,242.40
2021,06,01,13,17,241.00
2021,06,01,13,18,241.00
2021,06,01,13,19,240.80
2021,06,01,13,20,239.50
2021,06,01,13,21,241.80
2021,06,01,13,22,243.00
2021,06,01,13,23,245.10
2021,06,01,13,24,250.10
2021,06,01,13,25,261.80
2021,06,01,13,26,276.40
2021,06,01,13,27,311.90
2021,06,01,13,28,388.60
2021,06,01,13,29,434.80
2021,06,01,13,30,433.30
2021,06,01,13,31,492.00
2021,06,01,13,32,481.60
2021,06,01,13,33,438.40
2021,06,01,13,34,376.10
2021,06,01,13,35,363.70
2021,06,01,13,36,385.80
2021,06,01,13,37,344.50
2021,06,01,13,38,336.00
2021,06,01,13,39,331.10
2021,06,01,13,40,328.20
2021,06,01,13,41,323.90
2021,06,01,13,42,318.40
2021,06,01,13,43,312.30
2021,06,01,13,44,309.00
2021,06,01,13,45,310.00
2021,06,01,13,46,313.50
2021,06,01,13,47,315.00
2021,06,01,13,48,312.60
2021,06,01,13,49,304.80
2021,06,01,13,50,299.50
2021,06,01,13,51,295.50
2021,06,01,13,52,290.00
2021,06,01,13,53,285.60
2021,06,01,13,54,283.10
2021,06,01,13,55,283.50
2021,06,01,13,56,286.20
2021,06,01,13,57,290.10
2021,06,01,13,58,295.30
2021,06,01,13,59,301.10
2021,06,01,14,00,309.30
2021,06,01,14,01,315.30
2021,06,01,14,02,325.30
2021,06,01,14,03,337.20
2021,06,01,14,04,351.40
2021,06,01,14,05,365.20
2021,06,01,14,06,382.70
2021,06,01,14,07,404.00
2021,06,01,14,08,430.00
2021,06,01,14,09,453.00
2021,06,01,14,10,502.30
2021,06,01,14,11,538.90
2021,06,01,14,12,545.30
2021,06,01,14,13,473.30
2021,06,01,14,14,462.90
2021,06,01,14,15,444.40
2021,06,01,14,16,417.70
2021,06,01,14,17,404.50
2021,06,01,14,18,389.40
2021,06,01,14,19,385.20
2021,06,01,14,20,379.60
2021,06,01,14,21,376.70
2021,06,01,14,22,377.60
2021,06,01,14,23,379.40
2021,06,01,14,24,422.20
2021,06,01,14,25,454.30
2021,06,01,14,26,484.60
2021,06,01,14,27,502.70
2021,06,01,14,28,506.00
2021,06,01,14,29,492.80
2021,06,01,14,30,426.20
2021,06,01,14,31,495.90
2021,06,01,14,32,484.70
2021,06,01,14,33,471.30
2021,06,01,14,34,487.70
2021,06,01,14,35,498.90
2021,06,01,14,36,500.00
2021,06,01,14,37,503.50
2021,06,01,14,38,510.20
2021,06,01,14,39,510.70
2021,06,01,14,40,521.80
2021,06,01,14,41,539.70
2021,06,01,14,42,535.00
2021,06,01,14,43,502.60
2021,06,01,14,44,489.60
2021,06,01,14,45,484.50
2021,06,01,14,46,478.60
2021,06,01,14,47,469.00
2021,06,01,14,48,475.00
2021,06,01,14,49,411.60
2021,06,01,14,50,324.00
2021,06,01,14,51,313.90
2021,06,01,14,52,323.40
2021,06,01,14,53,418.00
2021,06,01,14,54,505.70
2021,06,01,14,55,701.60
2021,06,01,14,56,713.50
2021,06,01,14,57,713.10
2021,06,01,14,58,658.40
2021,06,01,14,59,676.80
2021,06,01,15,00,786.00
2021,06,01,15,01,748.60
2021,06,01,15,02,681.90
2021,06,01,15,03,662.30
2021,06,01,15,04,623.70
2021,06,01,15,05,636.20
2021,06,01,15,06,719.00
2021,06,01,15,07,751.00
2021,06,01,15,08,810.80
2021,06,01,15,09,901.40
2021,06,01,15,10,898.40
2021,06,01,15,11,885.20
2021,06,01,15,12,845.60
2021,06,01,15,13,785.00
2021,06,01,15,14,740.10
2021,06,01,15,15,685.00
2021,06,01,15,16,713.40
2021,06,01,15,17,768.00
2021,06,01,15,18,788.00
2021,06,01,15,19,770.30
2021,06,01,15,20,715.70
2021,06,01,15,21,786.20
2021,06,01,15,22,746.70
2021,06,01,15,23,320.00
2021,06,01,15,24,320.00
2021,06,01,15,25,320.00
2021,06,01,15,26,693.40
2021,06,01,15,27,830.20
2021,06,01,15,28,773.50
2021,06,01,15,29,742.00
2021,06,01,15,30,742.00
2021,06,01,15,31,742.00
2021,06,01,15,32,738.30
2021,06,01,15,33,760.40
2021,06,01,15,34,772.00
2021,06,01,15,35,772.00
2021,06,01,15,36,779.10
2021,06,01,15,37,736.40
2021,06,01,15,38,758.00
2021,06,01,15,39,846.00
2021,06,01,15,40,816.60
2021,06,01,15,41,807.30
2021,06,01,15,42,854.00
2021,06,01,15,43,854.00
2021,06,01,15,44,854.00
2021,06,01,15,45,890.70
2021,06,01,15,46,871.60
2021,06,01,15,47,895.00
2021,06,01,15,48,874.50
2021,06,01,15,49,889.00
2021,06,01,15,50,706.20
2021,06,01,15,51,627.90
2021,06,01,15,52,305.70
2021,06,01,15,53,322.00
2021,06,01,15,54,388.40
2021,06,01,15,55,466.40
2021,06,01,15,56,476.00
2021,06,01,15,57,647.90
2021,06,01,15,58,658.80
2021,06,01,15,59,656.50
2021,06,01,16,00,675.80
2021,06,01,16,01,686.00
2021,06,01,16,02,686.00
2021,06,01,16,03,265.90
2021,06,01,16,04,254.70
2021,06,01,16,05,243.50
2021,06,01,16,06,229.20
2021,06,01,16,07,216.00
2021,06,01,16,08,208.10
2021,06,01,16,09,217.60
2021,06,01,16,10,239.90
2021,06,01,16,11,233.10
2021,06,01,16,12,238.20
2021,06,01,16,13,232.30
2021,06,01,16,14,218.10
2021,06,01,16,15,200.70
2021,06,01,16,16,190.40
2021,06,01,16,17,181.00
2021,06,01,16,18,170.70
2021,06,01,16,19,158.10
2021,06,01,16,20,143.20
2021,06,01,16,21,134.30
2021,06,01,16,22,129.30
2021,06,01,16,23,129.90
2021,06,01,16,24,135.10
2021,06,01,16,25,144.00
2021,06,01,16,26,156.10
2021,06,01,16,27,168.60
2021,06,01,16,28,174.70
2021,06,01,16,29,177.00
2021,06,01,16,30,181.10
2021,06,01,16,31,188.40
2021,06,01,16,32,197.10
2021,06,01,16,33,207.80
2021,06,01,16,34,218.10
2021,06,01,16,35,230.70
2021,06,01,16,36,240.70
2021,06,01,16,37,249.20
2021,06,01,16,38,262.10
2021,06,01,16,39,274.90
2021,06,01,16,40,278.00
2021,06,01,16,41,318.40
2021,06,01,16,42,401.90
2021,06,01,16,43,370.00
2021,06,01,16,44,362.80
2021,06,01,16,45,380.70
2021,06,01,16,46,373.50
2021,06,01,16,47,371.10
2021,06,01,16,48,364.00
2021,06,01,16,49,358.00
2021,06,01,16,50,359.00
2021,06,01,16,51,360.40
2021,06,01,16,52,369.90
2021,06,01,16,53,386.00
2021,06,01,16,54,400.80
2021,06,01,16,55,395.20
2021,06,01,16,56,388.80
2021,06,01,16,57,399.00
2021,06,01,16,58,406.40
2021,06,01,16,59,412.60
2021,06,01,17,00,411.00
2021,06,01,17,01,592.30
2021,06,01,17,02,653.10
2021,06,01,17,03,823.20
2021,06,01,17,04,828.90
2021,06,01,17,05,809.10
2021,06,01,17,06,800.40
2021,06,01,17,07,766.70
2021,06,01,17,08,324.10
2021,06,01,17,09,318.70